sat.trackr.live / text

‹ back to catalog

STARLINK-31588

NORAD 59335 · 2024-057R

PAYLOAD ACTIVE UNKNOWN

§ Identity

Operator
Country
US
Launch date
2024-03-25
Launch site
AFETR
Launch vehicle
Mass (kg)
RCS (m²)

Purposes: comms

External: N2YO · Heavens-Above · Gunter

§ Orbital elements

Epoch: 2026-05-25T04:42:18.319968Z

Period
94.27 min
Inclination
43.0023°
Eccentricity
0.0001335
Mean motion
15.27576940 rev/d
Perigee alt
482.1 km
Apogee alt
484.0 km
Semi-major
6,861.2 km
B*
1.9044e-5
RAAN
114.6658°
Arg perigee
270.5767°
Mean anomaly
89.4932°
Rev number
12,154

§ Raw data

STARLINK-315881 59335U 24057R   26145.19604537  .00000262  00000+0  19044-4 0  99972 59335  43.0023 114.6658 0001335 270.5767  89.4932 15.27576940121540

JSON: /api/v1/satellites/59335 · /tle

For live sub-satellite position, see the globe view (requires WebGL).

§ Visibility from observer

Set your observer location to see the next 7 days of passes ≥ 10°. The values pass through the URL so the page stays shareable.

No JS? Fill the form by hand. The geolocation button needs JavaScript.